Sparta, TN

10:01 AM CST on December 08, 2019 (GMT -0600)
Upper Cumberland Regional

Weather History for KSRB - October, 2019

Change the Weather History Date:

Friday, October 18, 2019

  Actual Average (WUND) Record (WUND)
Temperature  
Mean Temperature 50 °F -  
Max Temperature 69 °F - - (-1)
Min Temperature 32 °F - - (-1)
Degree Days  
Heating Degree Days 14    
Moisture  
Dew Point 38 °F    
Average Humidity 73    
Maximum Humidity 100    
Minimum Humidity 28    
Precipitation  
Precipitation 0.00 in - - ()
Sea Level Pressure  
Sea Level Pressure 30.00 in    
Wind  
Wind Speed 1 mph ()    
Max Wind Speed 7 mph    
Max Gust Speed 12 mph    
Visibility 9.6 miles    
Events      
Averages and records for this station are not official NWS values.
T = Trace of Precipitation, MM = Missing Value Source: Averaged Metar Reports

Daily Weather History Graph

Daily Weather History Graph

Search for Another Location

Airport or City:

Astronomy

Oct. 18, 2019 Rise Set
Actual Time 6:51 AM CDT 6:02 PM CDT
Civil Twilight 6:25 AM CDT 6:28 PM CDT
Nautical Twilight 5:55 AM CDT 6:58 PM CDT
Astronomical Twilight 5:25 AM CDT 7:28 PM CDT
Moon 9:25 PM CDT (10/18) 11:16 AM CDT (10/18)
Length of Visible Light 12h 03m
Length of Day
11h 11m
Waning Gibbous, 78% of the Moon is Illuminated
Oct 18
Waning Gibbous
Oct 21
Last Quarter
Oct 27
New
Nov 4
First Quarter
Nov 12
Full

Hourly Weather History & Observations

Time (CDT) Temp. Windchill Dew Point Humidity Pressure Visibility Wind Dir Wind Speed Gust Speed Precip Events Conditions
12:15 AM 35.6 °F - 35.6 °F 100% 30.01 in 10.0 mi Calm Calm - N/A   Clear
12:35 AM 37.4 °F - 35.6 °F 93% 30.01 in 10.0 mi Calm Calm - N/A   Clear
12:55 AM 35.6 °F - 33.8 °F 93% 30.02 in 7.0 mi Calm Calm - N/A   Clear
1:15 AM 33.8 °F - 33.8 °F 100% 30.02 in 3.0 mi Calm Calm - N/A   Clear
1:35 AM 33.8 °F - 33.8 °F 100% 30.02 in 3.0 mi Calm Calm - N/A   Clear
1:55 AM 33.8 °F - 33.8 °F 100% 30.03 in 10.0 mi Calm Calm - N/A   Clear
2:15 AM 33.8 °F - 33.8 °F 100% 30.02 in 10.0 mi Calm Calm - N/A   Clear
2:35 AM 33.8 °F - 33.8 °F 100% 30.02 in 10.0 mi Calm Calm - N/A   Clear
2:55 AM 33.8 °F - 33.8 °F 100% 30.02 in 6.0 mi Calm Calm - N/A   Clear
3:15 AM 33.8 °F - 32.0 °F 93% 30.02 in 8.0 mi Calm Calm - N/A   Clear
3:35 AM 33.8 °F 30.8 °F 33.8 °F 100% 30.02 in 10.0 mi NE 3.5 mph - N/A   Clear
3:55 AM 35.6 °F - 33.8 °F 93% 30.02 in 10.0 mi Calm Calm - N/A   Clear
4:15 AM 33.8 °F - 33.8 °F 100% 30.02 in 8.0 mi Calm Calm - N/A   Clear
4:35 AM 33.8 °F - 33.8 °F 100% 30.03 in 10.0 mi Calm Calm - N/A   Clear
4:55 AM 33.8 °F - 33.8 °F 100% 30.03 in 10.0 mi Calm Calm - N/A   Clear
5:15 AM 32.0 °F - 32.0 °F 100% 30.04 in 10.0 mi Calm Calm - N/A   Clear
5:35 AM 32.0 °F - 32.0 °F 100% 30.04 in 9.0 mi Calm Calm - N/A   Clear
5:55 AM 32.0 °F - 32.0 °F 100% 30.04 in 10.0 mi Calm Calm - N/A   Clear
6:15 AM 33.8 °F 28.6 °F 32.0 °F 93% 30.04 in 10.0 mi NE 5.8 mph - N/A   Clear
6:35 AM 33.8 °F - 33.8 °F 100% 30.04 in 10.0 mi Calm Calm - N/A   Clear
6:55 AM 33.8 °F - 32.0 °F 93% 30.04 in 10.0 mi Calm Calm - N/A   Clear
7:15 AM 33.8 °F - 33.8 °F 100% 30.04 in 10.0 mi Calm Calm - N/A   Clear
7:35 AM 35.6 °F - 35.6 °F 100% 30.04 in 10.0 mi Calm Calm - N/A   Clear
7:55 AM 39.2 °F - 39.2 °F 100% 30.05 in 10.0 mi Calm Calm - N/A   Clear
8:15 AM 41.0 °F 38.0 °F 41.0 °F 100% 30.06 in 10.0 mi SSW 4.6 mph - N/A   Clear
8:35 AM 44.6 °F 42.2 °F 41.0 °F 87% 30.08 in 10.0 mi SSW 4.6 mph - N/A   Clear
8:55 AM 46.4 °F - 41.0 °F 81% 30.08 in 10.0 mi Calm Calm - N/A   Clear
9:15 AM 48.2 °F - 42.8 °F 82% 30.09 in 10.0 mi Calm Calm - N/A   Clear
9:35 AM 51.8 °F - 41.0 °F 67% 30.09 in 10.0 mi Calm Calm - N/A   Clear
9:55 AM 53.6 °F - 41.0 °F 62% 30.08 in 10.0 mi Calm Calm - N/A   Clear
10:15 AM 55.4 °F - 41.0 °F 58% 30.08 in 10.0 mi Variable 4.6 mph - N/A   Clear
10:35 AM 57.2 °F - 39.2 °F 51% 30.08 in 10.0 mi ESE 3.5 mph - N/A   Clear
10:55 AM 59.0 °F - 39.2 °F 48% 30.07 in 10.0 mi East 4.6 mph - N/A   Clear
11:15 AM 60.8 °F - 39.2 °F 45% 30.07 in 10.0 mi NE 5.8 mph - N/A   Clear
11:35 AM 62.6 °F - 37.4 °F 39% 30.06 in 10.0 mi Variable 3.5 mph - N/A   Clear
11:55 AM 64.4 °F - 37.4 °F 37% 30.05 in 10.0 mi Calm Calm 11.5 mph N/A   Clear
12:15 PM 64.4 °F - 37.4 °F 37% 30.04 in 10.0 mi NW 5.8 mph - N/A   Clear
12:35 PM 66.2 °F - 35.6 °F 32% 30.03 in 10.0 mi Calm Calm - N/A   Clear
12:55 PM 68.0 °F - 35.6 °F 30% 30.02 in 10.0 mi ENE 5.8 mph - N/A   Clear
1:15 PM 66.2 °F - 35.6 °F 32% 30.01 in 10.0 mi Calm Calm - N/A   Clear
1:35 PM 68.0 °F - 35.6 °F 30% 30.01 in 10.0 mi SSE 4.6 mph - N/A   Clear
1:55 PM 68.0 °F - 35.6 °F 30% 29.99 in 10.0 mi Calm Calm - N/A   Clear
2:15 PM 69.8 °F - 35.6 °F 28% 29.99 in 10.0 mi Variable 5.8 mph - N/A   Clear
2:35 PM 69.8 °F - 35.6 °F 28% 29.98 in 10.0 mi ENE 6.9 mph - N/A   Clear
2:55 PM 69.8 °F - 35.6 °F 28% 29.97 in 10.0 mi East 6.9 mph - N/A   Clear
3:15 PM 69.8 °F - 35.6 °F 28% 29.97 in 10.0 mi Calm Calm - N/A   Clear
3:30 PM 69.8 °F - 35.6 °F 28% 29.97 in 8.0 mi Calm Calm - N/A   Clear
3:55 PM 69.8 °F - 35.6 °F 28% 29.97 in 10.0 mi Calm Calm - N/A   Clear
4:15 PM 68.0 °F - 37.4 °F 33% 29.96 in 10.0 mi NE 4.6 mph - N/A   Clear
4:35 PM 68.0 °F - 35.6 °F 30% 29.96 in 10.0 mi NNE 3.5 mph - N/A   Clear
4:55 PM 66.2 °F - 41.0 °F 40% 29.96 in 10.0 mi Calm Calm - N/A   Clear
5:15 PM 64.4 °F - 42.8 °F 45% 29.96 in 10.0 mi Calm Calm - N/A   Clear
5:35 PM 60.8 °F - 44.6 °F 55% 29.96 in 10.0 mi Calm Calm - N/A   Clear
5:55 PM 55.4 °F - 44.6 °F 67% 29.95 in 10.0 mi Calm Calm - N/A   Clear
6:15 PM 51.8 °F - 42.8 °F 71% 29.94 in 10.0 mi Calm Calm - N/A   Clear
6:35 PM 48.2 °F - 42.8 °F 82% 29.95 in 10.0 mi Calm Calm - N/A   Clear
6:55 PM 46.4 °F - 41.0 °F 81% 29.96 in 10.0 mi Calm Calm - N/A   Clear
7:15 PM 48.2 °F - 41.0 °F 76% 29.95 in 10.0 mi East 4.6 mph - N/A   Clear
7:35 PM 51.8 °F - 44.6 °F 76% 29.94 in 10.0 mi Calm Calm - N/A   Clear
7:55 PM 46.4 °F - 42.8 °F 87% 29.94 in 9.0 mi Calm Calm - N/A   Clear
8:15 PM 46.4 °F 45.2 °F 41.0 °F 81% 29.95 in 10.0 mi South 3.5 mph - N/A   Clear
8:35 PM 55.4 °F - 39.2 °F 54% 29.94 in 10.0 mi SE 4.6 mph - N/A   Clear
8:55 PM 50.0 °F - 41.0 °F 71% 29.93 in 10.0 mi East 4.6 mph - N/A   Clear
9:15 PM 48.2 °F - 41.0 °F 76% 29.94 in 10.0 mi Calm Calm - N/A   Clear
9:35 PM 48.2 °F - 42.8 °F 82% 29.94 in 10.0 mi Calm Calm - N/A   Clear
9:55 PM 44.6 °F - 41.0 °F 87% 29.94 in 10.0 mi Calm Calm - N/A   Clear
10:15 PM 44.6 °F - 42.8 °F 93% 29.94 in 10.0 mi Calm Calm - N/A   Clear
10:35 PM 46.4 °F - 42.8 °F 87% 29.94 in 10.0 mi Calm Calm - N/A   Clear
10:55 PM 42.8 °F - 41.0 °F 93% 29.95 in 10.0 mi Calm Calm - N/A   Clear
11:15 PM 42.8 °F - 41.0 °F 93% 29.94 in 10.0 mi Calm Calm - N/A   Clear
11:35 PM 41.0 °F - 41.0 °F 100% 29.94 in 10.0 mi Calm Calm - N/A   Clear
11:55 PM 41.0 °F - 39.2 °F 93% 29.93 in 10.0 mi Calm Calm - N/A   Clear